Location: Brno
(49.2000°N, 16.6330°E)
Time: 21:23:21
(UTC+02:00)

RESURS DK-1 - Visible Passes

Search period start: 22 May 2017 00:00
Search period end: 01 June 2017 00:00
Orbit: 557 x 563 km, 69.9° (Epoch: 21 May)

Date Brightness Start Highest point End Pass type
(mag) Time Alt. Az. Time Alt. Az. Time Alt. Az.
22 May 6.0 04:10:51 10° N 04:12:33 12° NE 04:14:15 10° ENE visible
22 May 2.7 21:27:33 10° SW 21:31:40 73° WNW 21:35:50 10° NNE visible
22 May 5.7 23:08:23 10° WNW 23:10:31 14° NW 23:12:39 10° N visible
23 May 5.8 04:09:03 10° N 04:11:23 14° NE 04:13:42 10° ENE visible
23 May 3.2 21:26:16 10° SW 21:30:19 55° NW 21:34:26 10° NNE visible
23 May 5.9 23:07:55 10° NW 23:09:20 11° NW 23:10:46 10° NNW visible
24 May 5.7 04:07:22 10° N 04:10:10 17° NE 04:12:57 10° E visible
24 May 3.8 21:25:03 10° SW 21:29:00 43° NW 21:32:59 10° NNE visible
25 May 5.6 04:05:46 10° N 04:08:56 21° NE 04:12:06 10° E visible
25 May 4.4 21:23:54 10° WSW 21:27:41 34° NW 21:31:31 10° NNE visible
26 May 5.1 04:04:12 10° N 04:07:41 25° NE 04:11:09 10° ESE visible
26 May 5.0 21:22:50 10° WSW 21:26:24 27° NW 21:30:00 10° NNE visible
27 May 4.7 04:02:41 10° NNW 04:06:25 31° NE 04:10:08 10° ESE visible
27 May 5.4 21:21:50 10° W 21:25:09 22° NW 21:28:28 10° N visible
28 May 4.1 04:01:12 10° NNW 04:05:07 38° NE 04:09:01 10° ESE visible
29 May 6.1 02:23:47 10° NNE 02:24:43 11° NNE 02:25:38 10° NE visible
29 May 3.5 03:59:44 10° NNW 04:03:48 49° NE 04:07:50 10° SE visible
30 May 5.8 02:21:40 10° N 02:23:32 13° NE 02:25:24 10° ENE visible
30 May 2.9 03:58:18 10° NNW 04:02:28 64° ENE 04:06:35 10° SE visible
31 May 5.5 02:19:54 10° N 02:22:21 15° NE 02:24:47 10° ENE visible
31 May 2.5 03:56:54 10° NNW 04:01:06 83° ENE 04:05:15 10° SSE visible
